Probability
0 0 0 0 0 0 0 0 0 0 0 0 0 0 0 0 0 0 0 0 0 0 1 2 2 1 0 0 1 2 3 3 3 2 1 0 0 0 0 0 0 0 0
0 0 0 0 0 0 0 0 0 0 0 0 0 0 0 0 0 0 0 0 0 0 0 1 1 0 0 0 1 2 3 3 2 1 0 0 0 0 0 0 0 0 0
0 0 0 0 0 0 0 0 0 0 0 0 0 0 0 0 0 0 1 1 1 1 0 0 0 0 0 1 2 2 2 2 2 0 0 0 0 0 0 0 0 0 0
0 0 0 0 0 0 0 0 0 0 0 0 0 0 0 0 0 1 2 2 2 2 1 0 0 0 1 2 4 3 2 2 2 1 0 0 0 0 0 0 0 0 0
0 0 0 0 0 0 0 0 0 0 0 0 0 0 0 1 0 1 2 3 3 3 2 1 0 1 1 2 3 4 4 3 2 1 0 0 0 0 0 0 0 0 0
0 0 0 0 0 0 0 0 0 0 0 0 0 0 0 0 0 0 1 2 3 3 3 2 2 2 2 1 2 4 4 3 1 0 1 1 1 0 0 0 0 0 0
0 0 0 0 0 0 0 0 0 0 0 0 0 0 0 0 0 0 0 2 3 3 3 3 3 4 3 2 2 4 4 2 0 0 1 1 1 0 0 0 0 0 0
0 0 0 0 0 0 0 0 0 0 0 0 0 0 0 0 0 0 1 2 3 3 3 3 4 4 5 4 3 3 3 2 1 0 0 0 0 0 0 0 0 0 0
0 0 0 0 0 0 0 0 0 0 0 0 0 0 0 0 0 0 1 2 3 3 3 3 3 4 4 5 4 3 3 3 2 1 0 0 0 0 0 0 0 0 0
0 0 0 0 0 0 0 0 0 0 0 0 0 0 0 0 0 0 0 1 2 3 3 3 3 3 3 4 4 3 3 3 3 2 1 0 0 0 0 1 1 1 0
0 0 0 0 0 0 0 1 1 0 0 0 0 0 0 0 0 0 0 0 1 1 2 2 3 3 3 4 4 3 3 3 3 3 1 0 0 0 0 1 2 1 1
0 0 0 0 0 0 1 2 2 1 0 0 0 0 0 0 0 0 0 0 0 0 1 1 1 2 4 4 4 3 3 3 3 3 2 0 0 1 1 1 2 3 2
0 0 0 0 0 0 1 2 3 2 1 1 0 0 0 0 0 0 0 0 0 0 1 1 1 1 3 4 4 3 3 3 3 3 2 1 1 2 2 3 3 3 2
0 0 0 0 0 0 0 1 3 3 3 2 1 0 0 0 0 0 1 1 0 0 1 1 0 1 3 4 3 3 3 2 2 2 2 2 2 2 2 2 2 1 1
1 0 0 0 0 0 0 1 2 3 3 2 1 0 0 0 0 0 1 1 0 0 0 0 0 2 3 4 3 3 2 1 1 1 1 1 1 1 1 1 1 0 0
2 1 1 0 0 0 0 0 1 2 2 1 0 0 0 0 0 0 1 1 0 0 0 0 1 2 3 3 2 2 2 1 0 0 0 0 0 0 0 0 0 0 0
3 3 2 1 0 0 0 0 0 1 1 0 0 0 0 0 0 0 0 0 0 0 0 0 1 2 2 1 1 1 1 0 0 0 0 0 0 0 0 0 0 0 0
3 3 3 2 1 0 0 0 0 0 0 0 0 0 0 0 0 0 0 0 0 0 0 0 0 1 1 0 0 0 0 0 0 0 0 0 0 0 0 0 0 0 0
3 3 3 2 2 1 0 0 0 0 0 0 0 0 0 0 0 0 0 0 0 0 0 0 0 0 0 0 0 0 0 0 0 0 0 0 0 0 0 0 0 0 0
1 2 2 1 1 1 0 0 0 0 0 0 0 0 0 0 0 0 0 0 0 0 0 0 0 0 0 0 0 0 0 0 0 0 0 0 0 0 0 0 0 0 0
0 1 1 1 1 1 0 0 0 0 0 0 0 0 0 0 0 0 0 0 0 0 0 0 0 0 0 0 0 0 0 0 0 0 0 0 0 0 0 0 0 0 0
0 0 0 0 0 0 0 0 0 0 0 0 0 0 0 0 0 0 0 0 0 0 0 0 0 0 0 0 0 0 0 0 0 0 0 0 0 0 0 0 0 0 0
1 0 0 0 0 0 0 0 0 0 0 0 0 0 0 0 0 0 0 0 0 0 0 0 0 0 0 0 0 0 0 0 0 0 0 0 0 1 1 1 0 0 0
2 1 0 0 0 0 0 0 0 0 0 0 0 0 0 0 0 0 0 0 0 0 0 0 0 0 0 0 0 0 0 0 0 0 0 0 1 2 2 1 0 0 0
3 2 0 0 0 0 0 0 0 0 0 0 0 0 0 0 0 0 0 0 0 0 0 0 0 0 0 0 0 0 0 0 0 0 0 1 2 2 1 0 0 0 0
5 3 1 0 0 0 0 0 0 0 0 0 0 0 0 0 0 0 0 0 0 0 0 0 0 0 0 0 0 0 0 0 0 0 0 1 2 1 0 0 0 0 0
Wind_Speed
2 3 3 3 3 3 3 3 3 5 4 5 5 5 6 6 5 4 4 9 9 9 9 9 8 8 7 7 7 7 8 8 9 9 9 9 8 7 7 7 6 6 6
2 2 3 3 3 3 3 3 4 3 3 4 5 5 5 5 5 4 4 5 8 8 8 8 8 7 7 6 6 6 7 7 7 8 8 8 8 8 7 6 7 7 7
2 2 2 2 2 2 2 3 4 3 3 3 3 4 4 4 4 4 4 3 4 6 7 7 8 8 7 5 5 5 6 6 7 8 8 8 8 8 7 7 7 7 7
2 2 2 2 2 2 2 2 2 2 2 2 2 3 3 3 4 4 3 3 3 3 5 8 8 8 8 7 7 7 7 8 7 7 7 7 7 7 7 7 7 7 7
1 1 1 1 2 1 2 2 2 2 2 2 2 2 3 3 3 3 3 4 4 3 3 4 5 7 8 8 8 8 7 7 7 7 7 7 7 7 6 6 6 6 6
1 1 1 1 1 1 1 1 1 1 1 1 1 1 2 2 2 2 3 2 3 4 4 3 2 4 6 8 8 7 7 7 7 7 6 6 6 6 6 5 5 5 6
0 1 0 0 0 0 0 0 1 1 1 1 1 0 0 1 2 1 1 1 2 3 2 3 3 2 2 5 6 6 6 6 6 5 5 5 6 5 5 5 5 5 5
0 0 1 1 1 1 1 1 0 1 0 1 2 2 1 1 2 1 1 1 2 1 2 2 2 2 2 1 5 5 5 5 4 4 4 4 5 5 5 5 5 5 4
1 1 1 1 1 2 1 2 1 2 1 1 2 3 2 1 1 1 0 1 1 1 1 1 2 2 2 1 2 4 4 4 4 4 4 4 4 4 4 5 5 5 5
1 1 1 2 2 2 2 2 2 2 2 1 1 2 3 3 3 1 1 0 1 2 2 1 1 2 1 1 2 4 3 3 3 3 3 3 3 3 3 3 3 3 4
1 1 2 2 2 2 2 2 2 2 2 2 2 2 2 2 4 3 2 1 1 1 1 1 1 1 1 1 1 3 2 2 2 2 2 3 3 3 3 2 2 2 3
1 1 1 2 2 2 2 2 2 3 3 3 3 2 3 2 2 2 3 3 2 1 1 1 2 1 1 1 0 2 1 1 1 2 2 2 3 3 3 2 2 2 2
1 1 1 2 1 2 2 2 2 2 3 3 3 3 3 3 3 3 3 3 3 2 2 2 2 2 2 1 1 2 2 1 1 1 1 2 2 2 3 2 2 1 2
2 1 2 2 1 2 2 2 2 2 2 3 3 3 3 3 3 3 3 4 4 3 3 2 1 1 1 2 0 3 2 3 1 1 1 1 2 2 2 2 2 2 2
2 2 2 2 1 1 2 2 2 2 2 2 2 3 3 2 3 3 3 4 5 5 4 3 2 1 1 1 0 2 2 3 2 1 1 1 1 1 2 2 2 2 2
2 2 2 2 1 1 2 2 2 2 3 2 2 3 2 2 2 3 3 4 4 5 5 3 3 2 1 2 2 3 2 3 4 3 2 2 2 2 2 2 2 2 2
2 2 2 2 2 1 2 1 2 3 4 3 3 3 3 3 2 3 3 3 4 4 5 5 3 2 3 3 2 3 2 3 3 5 3 3 2 2 2 2 2 1 2
2 3 2 2 2 2 2 2 2 3 3 4 4 4 4 2 4 4 3 4 4 5 5 5 4 3 3 3 2 3 2 2 2 4 4 4 3 3 3 2 2 1 1
3 3 3 2 2 2 2 3 3 3 4 4 4 4 4 4 4 4 4 4 4 4 4 5 4 3 3 2 2 2 3 3 3 3 5 5 4 3 3 2 2 1 1
3 3 3 3 3 2 2 3 3 4 4 4 4 5 5 5 5 5 4 4 4 4 4 5 4 3 3 3 3 3 3 2 3 2 2 3 4 5 4 3 2 2 1
3 3 3 3 3 3 2 3 3 3 4 4 4 4 4 4 5 4 3 3 4 4 4 4 4 4 3 3 3 3 3 2 3 2 3 3 3 3 3 4 4 3 3
3 3 3 3 3 2 1 2 4 4 4 4 4 4 4 3 3 3 4 5 5 5 5 4 4 5 5 4 3 3 3 3 3 2 3 3 3 3 3 3 3 4 4
2 3 3 3 4 2 1 2 4 4 4 4 4 4 3 3 4 4 4 4 4 5 6 7 6 6 6 5 5 5 5 5 4 2 3 4 3 3 2 2 4 4 4
2 2 3 3 3 1 1 2 4 5 4 4 4 4 4 4 4 4 4 4 4 5 5 6 6 6 6 6 6 6 6 6 5 3 4 4 3 3 3 2 4 5 5
2 3 3 3 3 2 1 1 4 4 4 5 4 4 5 4 3 5 5 5 5 4 3 4 5 5 6 6 6 4 4 4 4 3 3 4 3 3 3 4 4 6 5
2 2 2 3 3 3 1 2 4 3 4 4 3 4 3 4 4 5 5 5 6 5 5 4 5 5 5 4 5 6 5 5 4 4 2 4 3 3 3 3 3 3 4
Wind_Direction
70 75 75 62 51 48 48 43 48 51 45 43 43 42 41 40 42 41 57 61 54 47 45 45 42 40 40 41 41 45 49 53 56 59 61 62 61 62 60 61 60 58 59
69 72 78 67 52 40 41 46 58 55 49 47 42 39 37 34 37 38 48 65 64 50 41 40 39 35 33 38 44 48 51 49 52 56 59 60 59 57 57 61 60 58 59
67 63 61 67 56 50 57 54 59 52 60 59 54 45 39 33 35 42 45 38 57 64 47 36 34 31 30 36 51 55 57 52 53 52 54 55 56 55 55 60 58 55 56
81 68 64 61 53 51 60 62 53 52 57 46 41 41 41 42 38 41 43 48 41 40 59 44 30 27 36 48 61 60 60 59 56 53 52 51 51 51 54 56 58 56 56
90 87 73 67 62 59 62 62 53 46 50 42 32 31 33 37 36 37 46 47 48 36 42 64 45 35 43 54 60 56 55 57 56 52 51 51 50 49 50 50 52 54 54
97 96 113 89 74 73 67 73 76 64 44 41 23 24 30 35 46 33 34 44 39 37 29 28 42 76 62 56 55 53 52 54 56 54 51 50 49 48 48 50 52 56 55
106 112 190 124 82 85 343 43 62 86 40 351 309 10 94 67 47 54 18 11 35 31 18 27 17 18 90 92 64 50 47 46 53 54 52 50 48 47 43 43 49 56 54
304 258 229 203 196 211 246 230 227 283 299 298 302 292 269 174 140 67 26 349 349 24 3 5 13 25 17 53 83 64 42 38 45 49 51 48 49 45 42 44 51 56 50
239 269 271 241 225 222 228 246 246 263 284 281 311 307 302 329 22 157 58 336 354 347 333 342 350 359 16 17 72 89 53 32 31 41 43 42 43 46 48 46 54 50 43
222 252 260 251 236 233 235 245 249 262 267 262 267 301 317 326 293 256 191 56 357 334 327 319 311 329 352 351 51 58 52 29 21 23 31 31 29 33 37 40 60 60 51
208 237 258 249 241 232 241 252 262 264 262 269 262 254 266 279 278 287 286 281 251 292 321 305 291 298 316 317 322 57 48 24 10 359 6 17 19 21 25 34 55 60 49
204 226 253 247 242 238 239 239 241 247 259 267 269 267 266 269 276 280 279 283 291 296 284 290 278 275 274 261 339 72 68 24 351 338 345 1 0 360 8 25 50 49 40
201 215 227 246 243 244 242 240 240 245 249 260 266 273 273 276 284 281 281 288 290 283 265 242 250 257 253 249 197 143 179 194 308 331 349 354 350 349 348 354 13 17 17
216 217 224 240 244 247 241 236 250 248 254 254 263 270 268 272 273 275 282 287 284 276 264 263 226 252 271 264 84 207 198 170 207 307 338 339 331 331 344 340 337 326 335
213 211 212 227 234 234 239 235 251 249 257 256 258 261 267 267 264 271 276 280 285 286 284 283 268 250 250 279 166 234 235 150 181 220 257 282 293 308 325 322 321 309 322
202 205 211 221 229 235 237 234 251 257 252 256 268 264 266 264 267 267 270 274 277 280 283 287 278 269 256 254 210 249 248 161 190 202 220 240 259 277 299 305 308 308 322
209 217 219 225 224 233 244 242 255 257 259 254 247 255 263 271 267 261 264 267 269 270 274 279 274 275 260 255 231 244 246 234 192 180 206 225 240 255 268 279 286 288 309
212 225 222 224 235 245 252 253 259 260 263 266 259 257 260 262 269 269 260 261 265 265 268 278 278 279 277 272 253 244 243 237 234 168 198 219 227 239 248 262 269 266 282
217 221 222 224 232 247 255 259 261 265 266 270 269 266 268 268 266 268 265 269 268 265 263 267 275 280 271 265 258 249 243 240 239 188 191 205 213 225 233 248 244 238 248
227 231 228 228 234 239 254 262 268 273 273 273 274 274 277 276 274 275 268 271 272 270 267 267 269 266 255 259 256 251 247 237 238 227 217 214 206 213 215 217 210 214 219
236 235 237 237 240 243 263 274 266 267 267 274 274 274 280 297 311 299 290 281 274 270 269 268 269 268 259 257 260 262 254 250 249 242 240 232 222 225 209 200 201 207 209
239 237 242 245 243 241 302 292 283 262 262 265 271 274 272 269 278 281 293 299 296 277 272 269 270 271 271 270 270 262 260 254 257 237 249 249 238 238 233 227 192 198 207
232 242 240 242 246 231 177 254 277 272 269 272 274 275 278 281 271 267 263 256 265 278 278 273 274 278 280 276 267 259 258 262 264 254 254 255 245 250 248 222 182 202 212
227 237 244 246 252 257 180 241 265 260 266 268 269 270 269 273 285 288 276 273 272 269 267 264 271 280 288 291 280 272 268 268 271 255 243 253 246 251 250 235 175 191 207
247 240 246 257 256 248 158 249 271 262 264 266 269 272 274 275 301 292 275 273 273 273 269 273 290 295 309 306 289 265 254 252 257 252 250 258 251 256 249 234 190 191 208
252 258 250 252 254 259 191 231 268 269 271 269 267 265 272 282 285 281 271 272 274 278 278 267 261 255 259 261 260 258 258 255 262 257 233 250 249 251 249 226 215 211 214